SCP
-0 -0 0 0 0 0 0 0 0 0 0 0 0 0 0 0 0 0 0 0 0 0 0 0 0 0 0 0 0 0 0 0 0 0 0 0 0 0 0 0 0 0 0 0 0 0 0
0 0 0 0 0 0 0 0 0 0 0 0 0 0 0 0 0 0 0 0 0 0 0 0 0 0 0 0 0 0 0 0 0 0 0 0 0 0 0 0 0 0 0 0 0 0 0
0 0 0 0 0 0 0 0 0 0 0 0 0 0 0 0 0 0 0 0 0 0 0 0 0 0 0 0 0 0 0 0 0 0 0 0 0 0 0 0 0 0 0 0 0 0 0
0 0 0 0 0 0 0 0 0 0 0 0 0 0 0 0 0 0 0 0 0 0 0 0 0 0 0 0 0 0 0 0 0 0 0 0 0 0 0 0 0 0 0 0 0 0 0
0 0 0 0 0 0 0 0 0 0 0 0 0 0 0 0 0 0 0 0 0 -0 -0 0 -0 0 0 0 -0 0 0 0 0 0 0 0 0 0 0 0 0 0 0 0 0 0 0
-0 -0 -0 -0 -0 0 0 0 0 0 0 0 0 0 0 0 0 0 0 0 -0 -0 -0 0 -0 -0 -0 0 0 0 0 0 0 0 0 0 0 0 0 0 0 0 0 0 0 -0 0
-0 -0 -0 -0 -0 -0 -0 -0 0 0 0 0 0 0 0 0 0 0 0 0 0 -0 -0 0 0 0 0 0 0 0 0 0 0 0 0 0 0 0 0 0 0 0 0 0 0 0 0
-0 -0 -0 -0 -0 -0 -0 -0 -0 -0 0 0 0 0 0 0 0 0 -0 0 0 0 0 0 0 0 -0 0 0 0 0 0 0 0 0 0 0 -0 0 0 0 0 0 0 0 0 0
-0 -0 -0 -0 -0 -0 -0 0 0 0 0 0 0 0 0 0 0 -0 0 0 0 0 0 0 -0 0 0 0 0 -0 0 0 0 0 0 0 0 0 0 0 0 0 0 0 0 0 0
-0 -0 -0 -0 -0 -0 -0 0 0 0 0 0 0 0 0 0 -0 0 -0 0 -0 0 -0 -0 -0 0 0 0 0 0 -0 0 0 0 0 0 0 0 0 0 0 0 0 0 0 0 0
-0 -0 -0 -0 -0 -0 0 0 0 0 0 0 0 0 0 0 -0 0 0 0 0 0 -0 0 0 0 0 0 0 0 -0 0 0 0 0 0 0 0 0 0 0 -0 0 0 0 0 0
-0 -0 -0 -0 -0 0 0 0 0 0 0 0 0 -0 -0 0 0 0 0 0 -0 0 -0 0 0 0 -0 -0 -0 0 -0 -0 0 0 0 0 0 0 0 0 0 0 0 0 0 0 0
0 0 0 0 0 0 0 0 0 0 0 0 0 0 0 0 0 0 0 0 -0 0 0 0 0 0 0 0 0 0 0 0 0 0 0 0 0 0 0 0 0 0 0 0 0 0 0
0 0 0 0 0 0 0 0 0 0 0 0 0 -0 0 0 0 0 0 0 0 -0 0 0 0 0 0 0 0 0 0 0 -0 0 0 0 0 0 0 0 0 0 0 0 0 0 0
0 0 0 0 0 0 0 0 0 0 0 0 0 0 0 0 0 0 0 -0 -0 -0 -0 -0 -0 0 0 0 0 0 0 0 0 0 0 0 0 0 0 0 0 0 0 0 0 0 0
0 0 0 0 0 0 0 0 0 0 0 0 0 0 0 0 0 0 0 -0 0 0 -0 -0 -0 0 -0 -0 0 0 0 0 0 0 0 0 0 0 0 0 0 0 0 0 0 0 0
0 0 0 0 0 0 0 0 0 0 0 0 0 0 0 0 0 0 0 -0 -0 0 -0 -0 -0 -0 -0 -0 -0 0 0 0 -0 0 0 0 0 0 0 0 0 0 0 0 0 0 0
0 0 0 0 0 0 0 0 0 0 0 0 0 0 0 0 0 0 0 0 -0 -0 0 -0 -0 -0 -0 -0 -0 -0 -0 0 0 0 0 0 0 0 0 0 0 0 0 0 0 0 0
0 0 0 0 0 0 0 0 0 0 0 0 0 0 0 0 0 0 0 0 -0 -0 -0 0 -0 -0 -0 -0 -0 -0 0 -0 0 0 0 0 -0 0 0 0 0 0 0 0 0 0 0
0 0 0 0 0 0 0 0 0 0 0 0 0 0 0 0 0 0 0 0 0 0 -0 -0 -0 -0 -0 -0 -0 -0 -0 0 0 0 0 0 -0 0 0 0 0 0 0 0 0 0 0
0 0 0 0 0 0 0 0 0 0 0 0 0 0 0 0 0 0 0 0 0 0 0 -0 -0 -0 0 -0 -0 -0 -0 -0 -0 -0 0 0 -0 0 0 0 0 0 0 0 0 0 0
0 0 0 0 0 0 0 0 0 0 0 0 0 0 0 0 0 0 0 0 0 -0 0 -0 -0 -0 -0 -0 -0 -0 -0 -0 0 0 0 0 -0 0 0 0 0 0 0 0 0 0 0
0 0 0 0 0 0 0 0 0 0 0 0 0 0 0 0 0 0 0 0 0 -0 0 0 -0 -0 -0 -0 -0 -0 -0 -0 0 0 0 0 0 0 0 0 0 0 0 0 0 0 0
0 0 0 0 0 0 0 0 0 0 0 0 0 0 0 0 0 0 0 0 0 0 0 0 0 -0 -0 -0 -0 -0 -0 -0 -0 -0 0 0 0 0 0 0 0 0 0 0 0 0 0
0 0 0 0 0 0 0 0 0 0 0 0 0 0 0 0 0 0 0 0 0 0 0 0 0 -0 -0 -0 -0 -0 0 -0 0 0 0 0 0 -0 0 0 0 0 0 0 0 0 0
0 0 0 0 0 0 0 0 0 0 0 0 0 0 0 0 0 0 0 0 0 0 0 0 -0 -0 -0 0 0 0 0 0 0 0 0 0 0 0 0 0 0 0 0 0 0 0 0
0 0 0 0 0 0 0 0 0 0 0 0 0 0 0 0 0 0 0 0 0 0 0 0 0 -0 -0 0 0 0 0 -0 0 0 0 0 0 0 0 0 0 0 0 0 0 0 0
0 0 0 0 0 0 0 0 0 0 0 0 0 0 0 0 0 0 0 0 0 0 0 0 0 0 -0 -0 0 0 0 0 0 0 0 0 0 0 0 0 -0 0 0 0 0 0 0
0 0 0 0 0 0 0 0 0 0 0 0 0 0 0 0 0 -0 0 0 0 0 0 0 0 -0 -0 -0 -0 0 0 0 0 0 0 0 0 0 0 0 0 0 0 0 0 0 0
Wind_Speed_500mb
27 28 29 30 31 31 31 30 31 34 35 35 36 36 36 38 38 37 37 37 38 41 41 42 42 40 32 24 45 38 41 21 21 19 42 65 75 75 65 63 66 65 64 78 82 83 88
35 36 36 38 38 37 36 35 35 35 36 36 35 35 37 39 39 40 40 40 40 38 37 38 41 41 27 48 23 30 31 35 27 25 32 52 75 79 81 75 68 81 79 79 87 86 82
37 38 38 38 38 37 37 37 37 38 38 37 37 38 41 42 42 42 40 39 38 39 39 39 41 36 42 55 35 35 36 37 40 39 39 41 54 65 69 66 83 85 72 70 72 76 68
34 37 39 40 40 39 38 37 37 35 33 32 32 35 39 41 44 46 46 44 41 41 40 38 39 26 45 33 44 50 46 47 45 49 48 38 34 63 72 60 64 64 63 59 69 68 73
35 36 37 39 40 41 42 43 42 42 40 40 40 42 43 41 39 36 37 40 41 40 30 27 19 22 44 14 28 25 40 42 40 49 52 49 37 45 48 46 45 52 56 76 65 61 57
36 38 40 40 42 43 43 44 44 46 45 41 44 46 45 45 48 51 51 37 29 21 13 6 18 20 34 31 15 10 10 22 33 39 49 61 37 36 39 43 55 63 65 61 67 59 56
39 38 38 42 43 45 47 47 46 44 45 45 46 48 50 52 52 52 50 38 9 17 27 30 30 31 50 31 32 39 28 27 28 35 48 60 37 55 89 66 61 59 53 62 64 57 54
39 40 41 46 46 46 48 48 44 44 46 46 46 47 50 53 54 43 22 24 21 20 30 53 60 65 61 53 54 52 44 43 39 40 44 49 65 92 49 62 63 63 63 64 58 55 43
39 40 43 46 46 48 50 50 48 49 49 49 50 50 51 55 41 21 28 24 16 22 24 59 60 53 48 33 47 46 46 52 47 45 50 60 88 51 66 61 62 64 62 58 59 48 40
41 42 43 46 45 47 48 49 51 52 52 51 52 53 52 55 22 30 18 20 21 23 14 40 20 12 21 16 27 24 32 40 50 58 50 55 65 67 63 71 67 63 57 55 46 39 36
41 42 43 44 47 48 48 49 50 51 52 54 58 57 54 34 25 20 22 22 18 11 12 10 17 16 10 18 21 10 15 29 38 46 37 68 59 71 72 79 60 70 49 49 46 43 43
39 41 42 43 45 47 49 50 52 53 55 58 63 52 36 15 8 15 23 19 14 11 17 4 10 9 18 23 27 23 20 27 26 36 56 64 70 55 79 68 60 54 55 48 37 35 39
40 41 42 44 44 47 50 52 54 56 56 59 62 30 24 12 16 25 19 15 9 14 7 11 19 26 24 32 30 35 26 23 28 28 42 57 61 59 61 64 71 57 44 31 32 34 40
41 42 44 45 45 48 51 52 55 56 56 57 44 20 16 13 22 21 14 7 15 27 25 31 32 30 33 36 39 30 24 28 40 41 39 44 52 66 53 67 73 61 59 31 52 23 33
44 45 45 44 45 48 50 53 56 56 55 56 26 10 4 18 18 10 5 10 12 32 33 26 34 31 38 17 20 19 29 33 8 15 13 39 56 55 70 51 51 76 56 63 42 43 23
46 46 46 46 47 48 50 54 57 57 54 48 22 13 7 17 19 6 7 14 19 16 21 30 36 27 28 34 23 22 22 5 16 15 24 32 47 52 55 53 64 71 54 49 41 46 28
49 47 46 46 46 48 51 57 58 55 53 36 19 7 3 13 12 13 10 17 28 33 30 20 39 37 34 22 26 26 7 10 12 25 22 43 23 33 56 65 63 56 50 57 42 34 29
50 50 48 47 46 49 54 57 55 48 51 37 14 7 10 13 9 8 12 30 38 33 32 28 28 32 30 31 29 37 21 8 2 21 22 33 10 20 39 60 61 61 55 63 30 44 34
50 49 47 46 48 51 55 56 54 41 38 32 21 10 3 10 9 14 30 34 26 24 27 29 14 32 33 29 15 16 25 25 24 10 10 17 16 18 23 36 55 66 62 53 56 31 39
50 48 46 46 50 54 55 55 50 36 29 18 19 8 4 9 14 18 27 29 27 29 31 22 35 21 26 33 3 7 13 10 22 15 27 24 20 29 13 29 47 60 72 62 57 32 33
50 49 47 45 48 56 55 52 48 32 23 15 11 12 11 11 19 25 30 29 31 25 21 41 22 15 25 33 34 6 11 29 16 26 10 10 35 43 24 47 50 49 54 50 60 42 35
50 50 49 45 44 54 55 49 42 31 17 9 15 14 25 40 21 26 19 23 29 37 21 25 25 34 31 29 29 33 27 27 13 9 6 19 40 41 29 44 50 60 60 55 48 50 31
49 49 49 49 44 50 55 49 35 27 17 9 13 13 11 25 14 13 20 28 39 40 20 27 29 33 31 30 45 51 44 41 33 30 27 12 17 16 30 39 36 33 60 52 50 49 40
48 50 50 49 47 44 53 51 35 23 8 12 18 16 12 16 21 19 27 29 34 38 35 37 31 26 32 50 54 50 44 40 37 33 22 20 13 10 15 34 31 11 11 50 43 38 26
47 49 53 53 52 44 44 49 39 25 12 10 22 11 9 15 39 26 36 34 37 42 26 27 30 33 44 36 16 16 10 14 24 21 10 17 7 10 8 16 29 16 21 9 33 29 22
48 49 51 55 57 49 39 46 42 27 17 15 16 24 15 18 12 40 34 37 24 26 27 36 42 44 26 16 8 8 6 10 7 1 15 19 20 12 22 15 20 14 14 6 13 19 18
50 51 51 54 55 54 40 44 41 35 21 16 22 24 15 22 36 33 27 21 26 24 17 41 46 46 24 12 5 8 7 18 9 7 6 9 13 24 21 8 7 25 17 15 18 11 15
51 52 52 51 55 50 46 44 45 37 28 21 20 27 21 20 51 32 23 38 33 27 8 38 26 13 17 16 9 7 7 8 8 8 11 7 7 7 12 3 12 37 10 5 17 17 17
52 51 51 48 54 52 49 48 48 46 30 25 25 26 29 29 49 48 41 38 35 30 27 8 10 22 10 7 9 7 6 7 10 2 12 2 7 6 8 6 4 34 30 29 20 20 21
Wind_Direction_500mb
13 8 4 1 358 356 354 349 344 340 339 336 335 330 327 323 318 313 309 307 305 308 312 314 312 314 321 256 246 284 288 279 249 260 233 223 223 226 234 234 243 239 244 253 260 266 267
22 23 22 20 19 14 9 3 358 353 348 346 343 337 333 328 325 320 314 309 306 304 299 296 298 302 291 267 261 257 264 260 255 254 242 231 233 232 242 241 241 246 253 255 258 264 264
31 25 20 19 17 12 7 2 357 353 350 347 343 337 333 330 326 323 319 314 309 300 292 286 283 282 270 257 263 266 266 263 252 249 251 241 239 240 243 250 248 257 259 261 256 256 261
28 25 22 19 17 13 8 2 357 352 347 343 340 333 326 323 322 322 321 317 310 300 292 283 276 264 260 264 270 268 263 262 253 246 241 241 250 240 242 256 254 251 254 259 253 253 249
28 28 25 21 18 13 9 5 359 352 346 342 340 335 332 328 324 320 315 315 311 301 288 277 260 226 264 268 246 272 251 252 254 246 238 239 243 244 236 239 251 244 243 241 254 247 251
29 28 23 18 10 5 1 358 354 352 349 343 340 337 335 331 329 329 323 324 320 291 329 265 243 238 255 257 260 262 262 269 261 242 235 220 226 235 231 222 227 229 237 246 257 260 250
29 24 17 11 5 2 1 357 354 351 350 346 341 338 336 332 333 330 326 338 275 245 225 253 285 231 286 271 272 267 264 274 250 234 225 213 214 220 220 219 237 243 248 249 250 253 242
23 18 14 10 8 6 4 2 358 354 349 345 341 337 335 335 336 337 5 329 326 299 296 275 269 263 260 268 271 258 253 247 239 238 221 220 217 223 225 230 229 243 249 251 262 268 274
16 13 11 9 7 6 5 2 0 356 351 345 341 336 333 334 340 3 322 314 309 312 278 282 266 262 252 242 253 250 238 228 238 242 230 222 229 222 227 232 234 231 236 247 254 266 273
16 13 10 6 5 4 1 360 357 355 352 345 339 332 328 329 327 319 327 321 322 315 281 266 195 216 185 224 251 232 235 241 232 236 241 237 238 235 225 230 230 237 231 244 259 270 261
10 8 4 2 2 0 356 354 350 350 348 344 341 332 324 323 314 330 322 319 311 289 283 102 121 135 225 222 314 169 239 218 245 243 224 241 228 230 237 226 225 241 237 240 238 250 263
1 360 357 356 356 354 352 351 349 348 347 344 344 338 341 12 306 323 316 309 287 240 246 100 161 354 243 241 248 260 217 218 258 242 253 244 248 238 234 241 227 236 235 242 245 253 248
355 350 349 350 352 351 350 348 347 348 347 345 347 356 16 11 323 319 310 292 246 250 8 44 2 305 272 287 280 266 255 253 244 213 234 243 247 247 241 224 237 220 218 224 228 229 244
355 349 349 350 349 351 348 349 345 347 348 344 352 18 329 340 327 322 301 262 251 344 19 342 335 313 294 277 263 263 253 258 250 247 269 227 230 233 233 229 215 217 208 211 218 217 236
359 357 356 352 354 354 348 348 346 345 348 344 5 343 276 337 339 335 249 254 325 358 349 332 317 296 273 310 323 282 255 271 299 357 286 250 240 228 227 232 228 213 210 217 248 217 251
355 355 355 353 357 354 350 348 347 344 348 350 349 319 256 336 323 311 283 303 336 358 326 313 305 293 317 321 295 271 285 178 313 297 260 278 260 230 222 223 237 227 205 210 225 239 220
2 358 354 352 357 355 352 348 348 346 347 1 341 302 336 344 313 292 302 328 336 336 325 322 309 309 311 334 299 298 235 218 211 293 267 277 303 247 233 213 216 208 210 212 218 227 229
6 0 357 356 1 359 354 350 350 348 347 3 319 292 349 348 283 288 304 331 303 300 315 315 342 306 310 307 290 287 217 335 177 321 299 272 258 267 235 212 219 212 208 201 214 208 236
7 3 1 3 3 0 356 352 351 358 356 348 314 296 311 346 350 326 313 319 333 324 310 314 288 307 310 318 309 339 360 352 337 356 305 4 237 262 206 224 202 211 212 199 221 222 206
6 3 1 2 0 359 356 354 352 0 359 5 310 308 32 337 349 320 321 313 328 339 321 316 306 332 311 302 127 259 347 348 295 277 273 280 262 254 235 226 196 210 200 204 201 213 192
3 0 357 357 358 360 359 355 353 4 8 357 317 23 356 304 328 315 300 293 315 331 326 304 295 293 279 314 313 311 264 276 281 246 244 262 240 238 256 284 211 209 205 196 192 208 221
359 359 357 352 353 359 360 357 351 2 14 355 342 347 328 298 297 309 329 315 332 330 333 313 328 320 316 306 311 309 318 301 279 255 287 282 256 238 250 289 286 199 213 201 195 206 212
354 355 356 355 348 352 357 359 352 357 17 331 333 315 330 295 299 314 311 325 309 317 314 290 305 317 311 311 316 304 293 283 279 280 300 283 300 246 245 249 238 221 198 194 198 201 210
350 351 351 352 351 345 351 355 355 344 343 297 305 307 300 304 319 304 294 306 316 306 297 306 312 306 305 310 306 289 260 250 257 259 246 277 319 263 245 247 209 51 308 187 195 197 206
345 348 348 347 348 344 346 350 352 343 314 302 294 283 289 291 316 300 329 321 314 316 310 316 325 319 312 310 305 280 258 260 247 250 204 261 244 263 213 235 108 133 24 87 176 73 31
345 345 346 344 343 342 341 349 346 337 309 303 293 280 271 301 314 325 321 315 316 324 320 330 329 328 304 290 303 325 308 292 103 292 271 229 211 256 235 202 154 82 15 50 100 115 42
345 341 339 342 341 339 334 343 346 335 310 286 288 278 267 281 288 311 306 311 312 318 297 306 339 321 318 303 320 333 315 326 357 345 343 268 210 226 226 214 99 349 350 156 219 84 45
332 336 339 337 340 336 328 329 338 338 307 274 288 279 255 274 293 290 293 290 282 270 269 304 323 15 320 2 342 335 327 330 319 2 330 339 306 177 287 183 75 353 66 37 86 87 51
327 328 332 337 339 338 329 319 322 330 318 274 282 272 268 266 279 298 286 281 286 300 295 253 276 316 321 319 2 319 322 327 318 27 334 56 1 354 23 63 63 67 74 65 63 56 40
Wind_Speed_850mb
27 28 29 30 31 31 31 30 31 34 35 35 36 36 36 38 38 37 37 37 38 41 41 42 42 40 32 24 45 38 41 21 21 19 42 65 75 75 65 63 66 65 64 78 82 83 88
35 36 36 38 38 37 36 35 35 35 36 36 35 35 37 39 39 40 40 40 40 38 37 38 41 41 27 48 23 30 31 35 27 25 32 52 75 79 81 75 68 81 79 79 87 86 82
37 38 38 38 38 37 37 37 37 38 38 37 37 38 41 42 42 42 40 39 38 39 39 39 41 36 42 55 35 35 36 37 40 39 39 41 54 65 69 66 83 85 72 70 72 76 68
34 37 39 40 40 39 38 37 37 35 33 32 32 35 39 41 44 46 46 44 41 41 40 38 39 26 45 33 44 50 46 47 45 49 48 38 34 63 72 60 64 64 63 59 69 68 73
35 36 37 39 40 41 42 43 42 42 40 40 40 42 43 41 39 36 37 40 41 40 30 27 19 22 44 14 28 25 40 42 40 49 52 49 37 45 48 46 45 52 56 76 65 61 57
36 38 40 40 42 43 43 44 44 46 45 41 44 46 45 45 48 51 51 37 29 21 13 6 18 20 34 31 15 10 10 22 33 39 49 61 37 36 39 43 55 63 65 61 67 59 56
39 38 38 42 43 45 47 47 46 44 45 45 46 48 50 52 52 52 50 38 9 17 27 30 30 31 50 31 32 39 28 27 28 35 48 60 37 55 89 66 61 59 53 62 64 57 54
39 40 41 46 46 46 48 48 44 44 46 46 46 47 50 53 54 43 22 24 21 20 30 53 60 65 61 53 54 52 44 43 39 40 44 49 65 92 49 62 63 63 63 64 58 55 43
39 40 43 46 46 48 50 50 48 49 49 49 50 50 51 55 41 21 28 24 16 22 24 59 60 53 48 33 47 46 46 52 47 45 50 60 88 51 66 61 62 64 62 58 59 48 40
41 42 43 46 45 47 48 49 51 52 52 51 52 53 52 55 22 30 18 20 21 23 14 40 20 12 21 16 27 24 32 40 50 58 50 55 65 67 63 71 67 63 57 55 46 39 36
41 42 43 44 47 48 48 49 50 51 52 54 58 57 54 34 25 20 22 22 18 11 12 10 17 16 10 18 21 10 15 29 38 46 37 68 59 71 72 79 60 70 49 49 46 43 43
39 41 42 43 45 47 49 50 52 53 55 58 63 52 36 15 8 15 23 19 14 11 17 4 10 9 18 23 27 23 20 27 26 36 56 64 70 55 79 68 60 54 55 48 37 35 39
40 41 42 44 44 47 50 52 54 56 56 59 62 30 24 12 16 25 19 15 9 14 7 11 19 26 24 32 30 35 26 23 28 28 42 57 61 59 61 64 71 57 44 31 32 34 40
41 42 44 45 45 48 51 52 55 56 56 57 44 20 16 13 22 21 14 7 15 27 25 31 32 30 33 36 39 30 24 28 40 41 39 44 52 66 53 67 73 61 59 31 52 23 33
44 45 45 44 45 48 50 53 56 56 55 56 26 10 4 18 18 10 5 10 12 32 33 26 34 31 38 17 20 19 29 33 8 15 13 39 56 55 70 51 51 76 56 63 42 43 23
46 46 46 46 47 48 50 54 57 57 54 48 22 13 7 17 19 6 7 14 19 16 21 30 36 27 28 34 23 22 22 5 16 15 24 32 47 52 55 53 64 71 54 49 41 46 28
49 47 46 46 46 48 51 57 58 55 53 36 19 7 3 13 12 13 10 17 28 33 30 20 39 37 34 22 26 26 7 10 12 25 22 43 23 33 56 65 63 56 50 57 42 34 29
50 50 48 47 46 49 54 57 55 48 51 37 14 7 10 13 9 8 12 30 38 33 32 28 28 32 30 31 29 37 21 8 2 21 22 33 10 20 39 60 61 61 55 63 30 44 34
50 49 47 46 48 51 55 56 54 41 38 32 21 10 3 10 9 14 30 34 26 24 27 29 14 32 33 29 15 16 25 25 24 10 10 17 16 18 23 36 55 66 62 53 56 31 39
50 48 46 46 50 54 55 55 50 36 29 18 19 8 4 9 14 18 27 29 27 29 31 22 35 21 26 33 3 7 13 10 22 15 27 24 20 29 13 29 47 60 72 62 57 32 33
50 49 47 45 48 56 55 52 48 32 23 15 11 12 11 11 19 25 30 29 31 25 21 41 22 15 25 33 34 6 11 29 16 26 10 10 35 43 24 47 50 49 54 50 60 42 35
50 50 49 45 44 54 55 49 42 31 17 9 15 14 25 40 21 26 19 23 29 37 21 25 25 34 31 29 29 33 27 27 13 9 6 19 40 41 29 44 50 60 60 55 48 50 31
49 49 49 49 44 50 55 49 35 27 17 9 13 13 11 25 14 13 20 28 39 40 20 27 29 33 31 30 45 51 44 41 33 30 27 12 17 16 30 39 36 33 60 52 50 49 40
48 50 50 49 47 44 53 51 35 23 8 12 18 16 12 16 21 19 27 29 34 38 35 37 31 26 32 50 54 50 44 40 37 33 22 20 13 10 15 34 31 11 11 50 43 38 26
47 49 53 53 52 44 44 49 39 25 12 10 22 11 9 15 39 26 36 34 37 42 26 27 30 33 44 36 16 16 10 14 24 21 10 17 7 10 8 16 29 16 21 9 33 29 22
48 49 51 55 57 49 39 46 42 27 17 15 16 24 15 18 12 40 34 37 24 26 27 36 42 44 26 16 8 8 6 10 7 1 15 19 20 12 22 15 20 14 14 6 13 19 18
50 51 51 54 55 54 40 44 41 35 21 16 22 24 15 22 36 33 27 21 26 24 17 41 46 46 24 12 5 8 7 18 9 7 6 9 13 24 21 8 7 25 17 15 18 11 15
51 52 52 51 55 50 46 44 45 37 28 21 20 27 21 20 51 32 23 38 33 27 8 38 26 13 17 16 9 7 7 8 8 8 11 7 7 7 12 3 12 37 10 5 17 17 17
52 51 51 48 54 52 49 48 48 46 30 25 25 26 29 29 49 48 41 38 35 30 27 8 10 22 10 7 9 7 6 7 10 2 12 2 7 6 8 6 4 34 30 29 20 20 21
Wind_Direction_850mb
13 8 4 1 358 356 354 349 344 340 339 336 335 330 327 323 318 313 309 307 305 308 312 314 312 314 321 256 246 284 288 279 249 260 233 223 223 226 234 234 243 239 244 253 260 266 267
22 23 22 20 19 14 9 3 358 353 348 346 343 337 333 328 325 320 314 309 306 304 299 296 298 302 291 267 261 257 264 260 255 254 242 231 233 232 242 241 241 246 253 255 258 264 264
31 25 20 19 17 12 7 2 357 353 350 347 343 337 333 330 326 323 319 314 309 300 292 286 283 282 270 257 263 266 266 263 252 249 251 241 239 240 243 250 248 257 259 261 256 256 261
28 25 22 19 17 13 8 2 357 352 347 343 340 333 326 323 322 322 321 317 310 300 292 283 276 264 260 264 270 268 263 262 253 246 241 241 250 240 242 256 254 251 254 259 253 253 249
28 28 25 21 18 13 9 5 359 352 346 342 340 335 332 328 324 320 315 315 311 301 288 277 260 226 264 268 246 272 251 252 254 246 238 239 243 244 236 239 251 244 243 241 254 247 251
29 28 23 18 10 5 1 358 354 352 349 343 340 337 335 331 329 329 323 324 320 291 329 265 243 238 255 257 260 262 262 269 261 242 235 220 226 235 231 222 227 229 237 246 257 260 250
29 24 17 11 5 2 1 357 354 351 350 346 341 338 336 332 333 330 326 338 275 245 225 253 285 231 286 271 272 267 264 274 250 234 225 213 214 220 220 219 237 243 248 249 250 253 242
23 18 14 10 8 6 4 2 358 354 349 345 341 337 335 335 336 337 5 329 326 299 296 275 269 263 260 268 271 258 253 247 239 238 221 220 217 223 225 230 229 243 249 251 262 268 274
16 13 11 9 7 6 5 2 0 356 351 345 341 336 333 334 340 3 322 314 309 312 278 282 266 262 252 242 253 250 238 228 238 242 230 222 229 222 227 232 234 231 236 247 254 266 273
16 13 10 6 5 4 1 360 357 355 352 345 339 332 328 329 327 319 327 321 322 315 281 266 195 216 185 224 251 232 235 241 232 236 241 237 238 235 225 230 230 237 231 244 259 270 261
10 8 4 2 2 0 356 354 350 350 348 344 341 332 324 323 314 330 322 319 311 289 283 102 121 135 225 222 314 169 239 218 245 243 224 241 228 230 237 226 225 241 237 240 238 250 263
1 360 357 356 356 354 352 351 349 348 347 344 344 338 341 12 306 323 316 309 287 240 246 100 161 354 243 241 248 260 217 218 258 242 253 244 248 238 234 241 227 236 235 242 245 253 248
355 350 349 350 352 351 350 348 347 348 347 345 347 356 16 11 323 319 310 292 246 250 8 44 2 305 272 287 280 266 255 253 244 213 234 243 247 247 241 224 237 220 218 224 228 229 244
355 349 349 350 349 351 348 349 345 347 348 344 352 18 329 340 327 322 301 262 251 344 19 342 335 313 294 277 263 263 253 258 250 247 269 227 230 233 233 229 215 217 208 211 218 217 236
359 357 356 352 354 354 348 348 346 345 348 344 5 343 276 337 339 335 249 254 325 358 349 332 317 296 273 310 323 282 255 271 299 357 286 250 240 228 227 232 228 213 210 217 248 217 251
355 355 355 353 357 354 350 348 347 344 348 350 349 319 256 336 323 311 283 303 336 358 326 313 305 293 317 321 295 271 285 178 313 297 260 278 260 230 222 223 237 227 205 210 225 239 220
2 358 354 352 357 355 352 348 348 346 347 1 341 302 336 344 313 292 302 328 336 336 325 322 309 309 311 334 299 298 235 218 211 293 267 277 303 247 233 213 216 208 210 212 218 227 229
6 0 357 356 1 359 354 350 350 348 347 3 319 292 349 348 283 288 304 331 303 300 315 315 342 306 310 307 290 287 217 335 177 321 299 272 258 267 235 212 219 212 208 201 214 208 236
7 3 1 3 3 0 356 352 351 358 356 348 314 296 311 346 350 326 313 319 333 324 310 314 288 307 310 318 309 339 360 352 337 356 305 4 237 262 206 224 202 211 212 199 221 222 206
6 3 1 2 0 359 356 354 352 0 359 5 310 308 32 337 349 320 321 313 328 339 321 316 306 332 311 302 127 259 347 348 295 277 273 280 262 254 235 226 196 210 200 204 201 213 192
3 0 357 357 358 360 359 355 353 4 8 357 317 23 356 304 328 315 300 293 315 331 326 304 295 293 279 314 313 311 264 276 281 246 244 262 240 238 256 284 211 209 205 196 192 208 221
359 359 357 352 353 359 360 357 351 2 14 355 342 347 328 298 297 309 329 315 332 330 333 313 328 320 316 306 311 309 318 301 279 255 287 282 256 238 250 289 286 199 213 201 195 206 212
354 355 356 355 348 352 357 359 352 357 17 331 333 315 330 295 299 314 311 325 309 317 314 290 305 317 311 311 316 304 293 283 279 280 300 283 300 246 245 249 238 221 198 194 198 201 210
350 351 351 352 351 345 351 355 355 344 343 297 305 307 300 304 319 304 294 306 316 306 297 306 312 306 305 310 306 289 260 250 257 259 246 277 319 263 245 247 209 51 308 187 195 197 206
345 348 348 347 348 344 346 350 352 343 314 302 294 283 289 291 316 300 329 321 314 316 310 316 325 319 312 310 305 280 258 260 247 250 204 261 244 263 213 235 108 133 24 87 176 73 31
345 345 346 344 343 342 341 349 346 337 309 303 293 280 271 301 314 325 321 315 316 324 320 330 329 328 304 290 303 325 308 292 103 292 271 229 211 256 235 202 154 82 15 50 100 115 42
345 341 339 342 341 339 334 343 346 335 310 286 288 278 267 281 288 311 306 311 312 318 297 306 339 321 318 303 320 333 315 326 357 345 343 268 210 226 226 214 99 349 350 156 219 84 45
332 336 339 337 340 336 328 329 338 338 307 274 288 279 255 274 293 290 293 290 282 270 269 304 323 15 320 2 342 335 327 330 319 2 330 339 306 177 287 183 75 353 66 37 86 87 51
327 328 332 337 339 338 329 319 322 330 318 274 282 272 268 266 279 298 286 281 286 300 295 253 276 316 321 319 2 319 322 327 318 27 334 56 1 354 23 63 63 67 74 65 63 56 40